Year,Month,Day,Hour,Minute,Value (Times are PST for windspeed in km/hr)
2011,03,01,00,00,6.10
2011,03,01,00,01,7.00
2011,03,01,00,02,4.90
2011,03,01,00,03,11.30
2011,03,01,00,04,9.60
2011,03,01,00,05,7.40
2011,03,01,00,06,5.60
2011,03,01,00,07,10.60
2011,03,01,00,08,9.30
2011,03,01,00,09,5.80
2011,03,01,00,10,2.90
2011,03,01,00,11,1.70
2011,03,01,00,12,0.70
2011,03,01,00,13,3.40
2011,03,01,00,14,1.70
2011,03,01,00,15,1.80
2011,03,01,00,16,1.90
2011,03,01,00,17,3.00
2011,03,01,00,18,2.90
2011,03,01,00,19,1.70
2011,03,01,00,20,3.30
2011,03,01,00,21,3.30
2011,03,01,00,22,2.80
2011,03,01,00,23,2.80
2011,03,01,00,24,2.10
2011,03,01,00,25,2.70
2011,03,01,00,26,3.90
2011,03,01,00,27,3.80
2011,03,01,00,28,5.30
2011,03,01,00,29,5.10
2011,03,01,00,30,4.30
2011,03,01,00,31,3.90
2011,03,01,00,32,3.90
2011,03,01,00,33,8.10
2011,03,01,00,34,8.90
2011,03,01,00,35,3.00
2011,03,01,00,36,4.80
2011,03,01,00,37,5.10
2011,03,01,00,38,4.70
2011,03,01,00,39,4.10
2011,03,01,00,40,6.70
2011,03,01,00,41,7.80
2011,03,01,00,42,6.50
2011,03,01,00,43,7.50
2011,03,01,00,44,8.80
2011,03,01,00,45,8.00
2011,03,01,00,46,5.50
2011,03,01,00,47,5.70
2011,03,01,00,48,4.30
2011,03,01,00,49,5.70
2011,03,01,00,50,3.60
2011,03,01,00,51,3.70
2011,03,01,00,52,4.20
2011,03,01,00,53,4.40
2011,03,01,00,54,2.70
2011,03,01,00,55,3.10
2011,03,01,00,56,3.20
2011,03,01,00,57,4.30
2011,03,01,00,58,4.10
2011,03,01,00,59,6.50
2011,03,01,01,00,3.10
2011,03,01,01,01,4.20
2011,03,01,01,02,5.00
2011,03,01,01,03,2.40
2011,03,01,01,04,4.00
2011,03,01,01,05,4.00
2011,03,01,01,06,3.10
2011,03,01,01,07,6.60
2011,03,01,01,08,6.10
2011,03,01,01,09,4.50
2011,03,01,01,10,3.80
2011,03,01,01,11,4.90
2011,03,01,01,12,5.70
2011,03,01,01,13,5.50
2011,03,01,01,14,5.40
2011,03,01,01,15,5.20
2011,03,01,01,16,4.40
2011,03,01,01,17,3.70
2011,03,01,01,18,2.50
2011,03,01,01,19,2.90
2011,03,01,01,20,7.90
2011,03,01,01,21,15.20
2011,03,01,01,22,13.30
2011,03,01,01,23,13.80
2011,03,01,01,24,20.70
2011,03,01,01,25,17.30
2011,03,01,01,26,25.60
2011,03,01,01,27,24.40
2011,03,01,01,28,19.10
2011,03,01,01,29,13.50
2011,03,01,01,30,17.80
2011,03,01,01,31,23.60
2011,03,01,01,32,18.00
2011,03,01,01,33,17.60
2011,03,01,01,34,10.80
2011,03,01,01,35,14.60
2011,03,01,01,36,13.00
2011,03,01,01,37,11.00
2011,03,01,01,38,9.40
2011,03,01,01,39,11.10
2011,03,01,01,40,9.40
2011,03,01,01,41,9.00
2011,03,01,01,42,7.80
2011,03,01,01,43,4.80
2011,03,01,01,44,1.20
2011,03,01,01,45,5.30
2011,03,01,01,46,4.20
2011,03,01,01,47,6.70
2011,03,01,01,48,7.20
2011,03,01,01,49,6.70
2011,03,01,01,50,6.10
2011,03,01,01,51,6.20
2011,03,01,01,52,7.70
2011,03,01,01,53,4.60
2011,03,01,01,54,4.80
2011,03,01,01,55,5.40
2011,03,01,01,56,4.70
2011,03,01,01,57,4.10
2011,03,01,01,58,5.10
2011,03,01,01,59,6.10
2011,03,01,02,00,2.70
2011,03,01,02,01,3.40
2011,03,01,02,02,4.30
2011,03,01,02,03,4.30
2011,03,01,02,04,3.50
2011,03,01,02,05,1.10
2011,03,01,02,06,3.10
2011,03,01,02,07,1.80
2011,03,01,02,08,0.70
2011,03,01,02,09,0.00
2011,03,01,02,10,0.00
2011,03,01,02,11,0.70
2011,03,01,02,12,0.20
2011,03,01,02,13,0.00
2011,03,01,02,14,0.00
2011,03,01,02,15,0.20
2011,03,01,02,16,1.40
2011,03,01,02,17,1.20
2011,03,01,02,18,2.60
2011,03,01,02,19,1.80
2011,03,01,02,20,1.60
2011,03,01,02,21,3.10
2011,03,01,02,22,3.00
2011,03,01,02,23,1.20
2011,03,01,02,24,0.80
2011,03,01,02,25,0.30
2011,03,01,02,26,0.50
2011,03,01,02,27,1.10
2011,03,01,02,28,1.60
2011,03,01,02,29,3.10
2011,03,01,02,30,2.60
2011,03,01,02,31,2.80
2011,03,01,02,32,2.50
2011,03,01,02,33,1.20
2011,03,01,02,34,1.00
2011,03,01,02,35,0.80
2011,03,01,02,36,0.80
2011,03,01,02,37,0.00
2011,03,01,02,38,0.00
2011,03,01,02,39,1.80
2011,03,01,02,40,0.00
2011,03,01,02,41,0.80
2011,03,01,02,42,0.10
2011,03,01,02,43,1.70
2011,03,01,02,44,2.00
2011,03,01,02,45,1.80
2011,03,01,02,46,3.70
2011,03,01,02,47,3.40
2011,03,01,02,48,2.50
2011,03,01,02,49,0.80
2011,03,01,02,50,1.80
2011,03,01,02,51,3.40
2011,03,01,02,52,3.60
2011,03,01,02,53,3.10
2011,03,01,02,54,5.70
2011,03,01,02,55,5.70
2011,03,01,02,56,3.90
2011,03,01,02,57,4.30
2011,03,01,02,58,3.10
2011,03,01,02,59,1.60
2011,03,01,03,00,1.30
2011,03,01,03,01,0.20
2011,03,01,03,02,0.80
2011,03,01,03,03,0.50
2011,03,01,03,04,0.80
2011,03,01,03,05,1.40
2011,03,01,03,06,1.40
2011,03,01,03,07,0.30
2011,03,01,03,08,1.00
2011,03,01,03,09,1.10
2011,03,01,03,10,1.50
2011,03,01,03,11,0.00
2011,03,01,03,12,1.20
2011,03,01,03,13,0.80
2011,03,01,03,14,1.70
2011,03,01,03,15,1.40
2011,03,01,03,16,1.50
2011,03,01,03,17,2.10
2011,03,01,03,18,0.90
2011,03,01,03,19,2.60
2011,03,01,03,20,4.00
2011,03,01,03,21,3.40
2011,03,01,03,22,5.90
2011,03,01,03,23,5.00
2011,03,01,03,24,7.70
2011,03,01,03,25,5.60
2011,03,01,03,26,3.70
2011,03,01,03,27,3.30
2011,03,01,03,28,2.40
2011,03,01,03,29,2.90
2011,03,01,03,30,1.60
2011,03,01,03,31,2.80
2011,03,01,03,32,2.30
2011,03,01,03,33,2.50
2011,03,01,03,34,0.70
2011,03,01,03,35,0.00
2011,03,01,03,36,0.00
2011,03,01,03,37,0.00
2011,03,01,03,38,3.40
2011,03,01,03,39,3.70
2011,03,01,03,40,2.00
2011,03,01,03,41,1.30
2011,03,01,03,42,1.10
2011,03,01,03,43,1.00
2011,03,01,03,44,3.10
2011,03,01,03,45,5.10
2011,03,01,03,46,4.80
2011,03,01,03,47,3.50
2011,03,01,03,48,5.60
2011,03,01,03,49,7.50
2011,03,01,03,50,7.70
2011,03,01,03,51,6.10
2011,03,01,03,52,8.00
2011,03,01,03,53,9.70
2011,03,01,03,54,14.50
2011,03,01,03,55,9.30
2011,03,01,03,56,7.80
2011,03,01,03,57,13.30
2011,03,01,03,58,12.60
2011,03,01,03,59,9.80
2011,03,01,04,00,10.00
2011,03,01,04,01,13.00
2011,03,01,04,02,11.20
2011,03,01,04,03,13.00
2011,03,01,04,04,14.30
2011,03,01,04,05,11.50
2011,03,01,04,06,14.60
2011,03,01,04,07,8.90
2011,03,01,04,08,8.30
2011,03,01,04,09,14.60
2011,03,01,04,10,11.90
2011,03,01,04,11,10.10
2011,03,01,04,12,8.80
2011,03,01,04,13,13.90
2011,03,01,04,14,14.20
2011,03,01,04,15,13.20
2011,03,01,04,16,8.10
2011,03,01,04,17,10.80
2011,03,01,04,18,8.90
2011,03,01,04,19,5.80
2011,03,01,04,20,4.60
2011,03,01,04,21,9.30
2011,03,01,04,22,6.50
2011,03,01,04,23,7.70
2011,03,01,04,24,5.00
2011,03,01,04,25,7.30
2011,03,01,04,26,7.00
2011,03,01,04,27,7.10
2011,03,01,04,28,7.40
2011,03,01,04,29,8.20
2011,03,01,04,30,10.30
2011,03,01,04,31,9.00
2011,03,01,04,32,6.00
2011,03,01,04,33,5.10
2011,03,01,04,34,2.70
2011,03,01,04,35,8.70
2011,03,01,04,36,10.00
2011,03,01,04,37,8.90
2011,03,01,04,38,5.60
2011,03,01,04,39,6.30
2011,03,01,04,40,7.80
2011,03,01,04,41,9.40
2011,03,01,04,42,13.20
2011,03,01,04,43,13.90
2011,03,01,04,44,12.40
2011,03,01,04,45,12.80
2011,03,01,04,46,11.00
2011,03,01,04,47,14.80
2011,03,01,04,48,12.60
2011,03,01,04,49,10.10
2011,03,01,04,50,9.30
2011,03,01,04,51,8.70
2011,03,01,04,52,12.10
2011,03,01,04,53,7.60
2011,03,01,04,54,6.40
2011,03,01,04,55,3.60
2011,03,01,04,56,4.70
2011,03,01,04,57,1.80
2011,03,01,04,58,1.80
2011,03,01,04,59,3.10
2011,03,01,05,00,3.80
2011,03,01,05,01,3.10
2011,03,01,05,02,2.70
2011,03,01,05,03,3.40
2011,03,01,05,04,2.60
2011,03,01,05,05,2.30
2011,03,01,05,06,2.80
2011,03,01,05,07,2.80
2011,03,01,05,08,2.70
2011,03,01,05,09,2.80
2011,03,01,05,10,3.40
2011,03,01,05,11,2.70
2011,03,01,05,12,2.60
2011,03,01,05,13,3.40
2011,03,01,05,14,1.80
2011,03,01,05,15,2.10
2011,03,01,05,16,2.70
2011,03,01,05,17,3.40
2011,03,01,05,18,1.80
2011,03,01,05,19,2.20
2011,03,01,05,20,2.20
2011,03,01,05,21,4.30
2011,03,01,05,22,2.80
2011,03,01,05,23,4.30
2011,03,01,05,24,3.40
2011,03,01,05,25,4.50
2011,03,01,05,26,5.40
2011,03,01,05,27,3.70
2011,03,01,05,28,3.60
2011,03,01,05,29,4.90
2011,03,01,05,30,4.40
2011,03,01,05,31,2.50
2011,03,01,05,32,0.70
2011,03,01,05,33,2.00
2011,03,01,05,34,2.30
2011,03,01,05,35,2.10
2011,03,01,05,36,1.10
2011,03,01,05,37,0.40
2011,03,01,05,38,0.10
2011,03,01,05,39,2.10
2011,03,01,05,40,0.70
2011,03,01,05,41,1.30
2011,03,01,05,42,2.10
2011,03,01,05,43,1.10
2011,03,01,05,44,2.50
2011,03,01,05,45,2.30
2011,03,01,05,46,2.90
2011,03,01,05,47,2.80
2011,03,01,05,48,3.80
2011,03,01,05,49,5.50
2011,03,01,05,50,4.50
2011,03,01,05,51,5.10
2011,03,01,05,52,5.60
2011,03,01,05,53,7.00
2011,03,01,05,54,5.20
2011,03,01,05,55,5.30
2011,03,01,05,56,5.70
2011,03,01,05,57,6.40
2011,03,01,05,58,6.40
2011,03,01,05,59,5.50
2011,03,01,06,00,7.00
2011,03,01,06,01,5.10
2011,03,01,06,02,5.40
2011,03,01,06,03,7.00
2011,03,01,06,04,3.00
2011,03,01,06,05,1.40
2011,03,01,06,06,2.60
2011,03,01,06,07,1.20
2011,03,01,06,08,1.90
2011,03,01,06,09,0.20
2011,03,01,06,10,0.50
2011,03,01,06,11,0.90
2011,03,01,06,12,2.20
2011,03,01,06,13,3.20
2011,03,01,06,14,3.60
2011,03,01,06,15,4.60
2011,03,01,06,16,2.90
2011,03,01,06,17,2.40
2011,03,01,06,18,1.80
2011,03,01,06,19,7.40
2011,03,01,06,20,2.30
2011,03,01,06,21,1.70
2011,03,01,06,22,7.90
2011,03,01,06,23,6.30
2011,03,01,06,24,1.10
2011,03,01,06,25,1.80
2011,03,01,06,26,2.40
2011,03,01,06,27,2.40
2011,03,01,06,28,1.30
2011,03,01,06,29,0.00
2011,03,01,06,30,1.50
2011,03,01,06,31,6.10
2011,03,01,06,32,7.10
2011,03,01,06,33,8.60
2011,03,01,06,34,8.50
2011,03,01,06,35,6.40
2011,03,01,06,36,5.20
2011,03,01,06,37,7.70
2011,03,01,06,38,5.60
2011,03,01,06,39,7.30
2011,03,01,06,40,4.10
2011,03,01,06,41,4.70
2011,03,01,06,42,5.50
2011,03,01,06,43,2.00
2011,03,01,06,44,4.50
2011,03,01,06,45,4.20
2011,03,01,06,46,5.20
2011,03,01,06,47,3.30
2011,03,01,06,48,3.50
2011,03,01,06,49,3.10
2011,03,01,06,50,5.80
2011,03,01,06,51,10.20
2011,03,01,06,52,6.60
2011,03,01,06,53,9.70
2011,03,01,06,54,6.70
2011,03,01,06,55,6.30
2011,03,01,06,56,12.00
2011,03,01,06,57,8.00
2011,03,01,06,58,6.80
2011,03,01,06,59,8.70
2011,03,01,07,00,8.70
2011,03,01,07,01,6.00
2011,03,01,07,02,6.40
2011,03,01,07,03,6.70
2011,03,01,07,04,3.50
2011,03,01,07,05,4.40
2011,03,01,07,06,7.00
2011,03,01,07,07,5.20
2011,03,01,07,08,6.40
2011,03,01,07,09,5.70
2011,03,01,07,10,3.00
2011,03,01,07,11,3.50
2011,03,01,07,12,4.40
2011,03,01,07,13,7.20
2011,03,01,07,14,10.00
2011,03,01,07,15,6.50
2011,03,01,07,16,6.10
2011,03,01,07,17,6.40
2011,03,01,07,18,7.40
2011,03,01,07,19,9.00
2011,03,01,07,20,9.60
2011,03,01,07,21,6.80
2011,03,01,07,22,5.90
2011,03,01,07,23,5.90
2011,03,01,07,24,5.40
2011,03,01,07,25,4.10
2011,03,01,07,26,1.50
2011,03,01,07,27,1.80
2011,03,01,07,28,0.40
2011,03,01,07,29,0.40
2011,03,01,07,30,3.70
2011,03,01,07,31,0.90
2011,03,01,07,32,2.90
2011,03,01,07,33,5.70
2011,03,01,07,34,4.80
2011,03,01,07,35,3.40
2011,03,01,07,36,2.50
2011,03,01,07,37,3.70
2011,03,01,07,38,0.40
2011,03,01,07,39,1.80
2011,03,01,07,40,1.20
2011,03,01,07,41,0.00
2011,03,01,07,42,2.40
2011,03,01,07,43,0.80
2011,03,01,07,44,3.70
2011,03,01,07,45,1.70
2011,03,01,07,46,1.80
2011,03,01,07,47,5.10
2011,03,01,07,48,2.30
2011,03,01,07,49,5.30
2011,03,01,07,50,6.50
2011,03,01,07,51,4.60
2011,03,01,07,52,5.00
2011,03,01,07,53,2.80
2011,03,01,07,54,2.70
2011,03,01,07,55,1.80
2011,03,01,07,56,0.30
2011,03,01,07,57,0.20
2011,03,01,07,58,0.60
2011,03,01,07,59,0.80
2011,03,01,08,00,2.10
2011,03,01,08,01,2.10
2011,03,01,08,02,2.00
2011,03,01,08,03,1.70
2011,03,01,08,04,1.60
2011,03,01,08,05,1.20
2011,03,01,08,06,1.20
2011,03,01,08,07,1.20
2011,03,01,08,08,2.40
2011,03,01,08,09,4.50
2011,03,01,08,10,4.00
2011,03,01,08,11,1.50
2011,03,01,08,12,2.20
2011,03,01,08,13,1.00
2011,03,01,08,14,0.90
2011,03,01,08,15,1.30
2011,03,01,08,16,0.30
2011,03,01,08,17,0.20
2011,03,01,08,18,0.00
2011,03,01,08,19,1.00
2011,03,01,08,20,0.80
2011,03,01,08,21,1.80
2011,03,01,08,22,2.10
2011,03,01,08,23,0.90
2011,03,01,08,24,0.10
2011,03,01,08,25,0.80
2011,03,01,08,26,0.60
2011,03,01,08,27,2.00
2011,03,01,08,28,2.60
2011,03,01,08,29,2.00
2011,03,01,08,30,2.20
2011,03,01,08,31,2.20
2011,03,01,08,32,2.40
2011,03,01,08,33,2.40
2011,03,01,08,34,1.80
2011,03,01,08,35,1.30
2011,03,01,08,36,0.60
2011,03,01,08,37,0.40
2011,03,01,08,38,0.50
2011,03,01,08,39,0.30
2011,03,01,08,40,0.10
2011,03,01,08,41,0.10
2011,03,01,08,42,0.00
2011,03,01,08,43,0.00
2011,03,01,08,44,0.00
2011,03,01,08,45,1.00
2011,03,01,08,46,0.80
2011,03,01,08,47,0.90
2011,03,01,08,48,1.30
2011,03,01,08,49,1.00
2011,03,01,08,50,0.80
2011,03,01,08,51,0.70
2011,03,01,08,52,1.00
2011,03,01,08,53,0.20
2011,03,01,08,54,0.00
2011,03,01,08,55,0.20
2011,03,01,08,56,0.30
2011,03,01,08,57,0.00
2011,03,01,08,58,0.00
2011,03,01,08,59,0.00
2011,03,01,09,00,0.00
2011,03,01,09,01,0.30
2011,03,01,09,02,0.00
2011,03,01,09,03,0.10
2011,03,01,09,04,0.40
2011,03,01,09,05,0.60
2011,03,01,09,06,0.10
2011,03,01,09,07,0.10
2011,03,01,09,08,0.00
2011,03,01,09,09,0.00
2011,03,01,09,10,0.30
2011,03,01,09,11,0.20
2011,03,01,09,12,0.00
2011,03,01,09,13,0.00
2011,03,01,09,14,0.00
2011,03,01,09,15,0.00
2011,03,01,09,16,0.00
2011,03,01,09,17,0.30
2011,03,01,09,18,0.00
2011,03,01,09,19,0.40
2011,03,01,09,20,0.60
2011,03,01,09,21,1.00
2011,03,01,09,22,0.20
2011,03,01,09,23,0.00
2011,03,01,09,24,0.00
2011,03,01,09,25,0.00
2011,03,01,09,26,0.00
2011,03,01,09,27,0.00
2011,03,01,09,28,0.00
2011,03,01,09,29,0.00
2011,03,01,09,30,0.00
2011,03,01,09,31,0.00
2011,03,01,09,32,0.00
2011,03,01,09,33,0.00
2011,03,01,09,34,0.00
2011,03,01,09,35,0.00
2011,03,01,09,36,0.00
2011,03,01,09,37,0.00
2011,03,01,09,38,0.00
2011,03,01,09,39,0.00
2011,03,01,09,40,0.00
2011,03,01,09,41,0.00
2011,03,01,09,42,0.00
2011,03,01,09,43,0.00
2011,03,01,09,44,0.00
2011,03,01,09,45,0.00
2011,03,01,09,46,0.00
2011,03,01,09,47,0.10
2011,03,01,09,48,0.00
2011,03,01,09,49,0.00
2011,03,01,09,50,0.10
2011,03,01,09,51,0.60
2011,03,01,09,52,0.50
2011,03,01,09,53,1.80
2011,03,01,09,54,1.80
2011,03,01,09,55,3.40
2011,03,01,09,56,4.70
2011,03,01,09,57,1.60
2011,03,01,09,58,3.10
2011,03,01,09,59,4.10
2011,03,01,10,00,2.80
2011,03,01,10,01,2.60
2011,03,01,10,02,1.40
2011,03,01,10,03,2.50
2011,03,01,10,04,3.10
2011,03,01,10,05,3.10
2011,03,01,10,06,3.20
2011,03,01,10,07,2.80
2011,03,01,10,08,3.70
2011,03,01,10,09,2.10
2011,03,01,10,10,2.00
2011,03,01,10,11,2.40
2011,03,01,10,12,2.90
2011,03,01,10,13,1.50
2011,03,01,10,14,3.50
2011,03,01,10,15,3.50
2011,03,01,10,16,1.80
2011,03,01,10,17,5.60
2011,03,01,10,18,3.90
2011,03,01,10,19,6.70
2011,03,01,10,20,4.60
2011,03,01,10,21,5.20
2011,03,01,10,22,5.40
2011,03,01,10,23,2.30
2011,03,01,10,24,4.00
2011,03,01,10,25,6.50
2011,03,01,10,26,3.80
2011,03,01,10,27,4.00
2011,03,01,10,28,4.40
2011,03,01,10,29,4.20
2011,03,01,10,30,3.30
2011,03,01,10,31,3.50
2011,03,01,10,32,3.10
2011,03,01,10,33,5.90
2011,03,01,10,34,5.60
2011,03,01,10,35,6.10
2011,03,01,10,36,4.20
2011,03,01,10,37,4.70
2011,03,01,10,38,5.30
2011,03,01,10,39,6.70
2011,03,01,10,40,3.90
2011,03,01,10,41,2.90
2011,03,01,10,42,4.60
2011,03,01,10,43,4.60
2011,03,01,10,44,4.90
2011,03,01,10,45,2.10
2011,03,01,10,46,3.30
2011,03,01,10,47,5.90
2011,03,01,10,48,3.00
2011,03,01,10,49,2.40
2011,03,01,10,50,3.00
2011,03,01,10,51,3.70
2011,03,01,10,52,2.80
2011,03,01,10,53,3.30
2011,03,01,10,54,2.50
2011,03,01,10,55,3.40
2011,03,01,10,56,2.80
2011,03,01,10,57,5.00
2011,03,01,10,58,4.10
2011,03,01,10,59,5.00
2011,03,01,11,00,4.80
2011,03,01,11,01,4.60
2011,03,01,11,02,4.20
2011,03,01,11,03,3.50
2011,03,01,11,04,4.10
2011,03,01,11,05,7.00
2011,03,01,11,06,5.40
2011,03,01,11,07,4.40
2011,03,01,11,08,4.80
2011,03,01,11,09,5.90
2011,03,01,11,10,5.70
2011,03,01,11,11,5.80
2011,03,01,11,12,4.50
2011,03,01,11,13,5.10
2011,03,01,11,14,6.80
2011,03,01,11,15,6.20
2011,03,01,11,16,4.70
2011,03,01,11,17,6.70
2011,03,01,11,18,7.30
2011,03,01,11,19,4.10
2011,03,01,11,20,4.70
2011,03,01,11,21,8.00
2011,03,01,11,22,5.70
2011,03,01,11,23,7.10
2011,03,01,11,24,7.50
2011,03,01,11,25,4.20
2011,03,01,11,26,6.10
2011,03,01,11,27,6.10
2011,03,01,11,28,7.10
2011,03,01,11,29,7.50
2011,03,01,11,30,9.30
2011,03,01,11,31,8.70
2011,03,01,11,32,8.60
2011,03,01,11,33,10.50
2011,03,01,11,34,13.00
2011,03,01,11,35,9.10
2011,03,01,11,36,7.20
2011,03,01,11,37,7.00
2011,03,01,11,38,7.00
2011,03,01,11,39,9.30
2011,03,01,11,40,6.40
2011,03,01,11,41,5.40
2011,03,01,11,42,8.60
2011,03,01,11,43,9.60
2011,03,01,11,44,8.90
2011,03,01,11,45,6.40
2011,03,01,11,46,7.50
2011,03,01,11,47,9.40
2011,03,01,11,48,9.10
2011,03,01,11,49,7.70
2011,03,01,11,50,8.00
2011,03,01,11,51,7.40
2011,03,01,11,52,5.70
2011,03,01,11,53,6.00
2011,03,01,11,54,7.30
2011,03,01,11,55,8.50
2011,03,01,11,56,7.80
2011,03,01,11,57,7.50
2011,03,01,11,58,10.30
2011,03,01,11,59,10.00
2011,03,01,12,00,8.50
2011,03,01,12,01,6.90
2011,03,01,12,02,6.70
2011,03,01,12,03,7.00
2011,03,01,12,04,6.00
2011,03,01,12,05,7.40
2011,03,01,12,06,8.30
2011,03,01,12,07,7.20
2011,03,01,12,08,6.10
2011,03,01,12,09,5.90
2011,03,01,12,10,7.10
2011,03,01,12,11,8.60
2011,03,01,12,12,7.80
2011,03,01,12,13,7.10
2011,03,01,12,14,5.90
2011,03,01,12,15,7.70
2011,03,01,12,16,9.20
2011,03,01,12,17,10.90
2011,03,01,12,18,7.10
2011,03,01,12,19,7.30
2011,03,01,12,20,7.00
2011,03,01,12,21,7.80
2011,03,01,12,22,5.20
2011,03,01,12,23,6.10
2011,03,01,12,24,6.30
2011,03,01,12,25,6.70
2011,03,01,12,26,9.00
2011,03,01,12,27,6.40
2011,03,01,12,28,6.90
2011,03,01,12,29,5.60
2011,03,01,12,30,5.70
2011,03,01,12,31,8.60
2011,03,01,12,32,8.40
2011,03,01,12,33,8.30
2011,03,01,12,34,7.10
2011,03,01,12,35,5.50
2011,03,01,12,36,8.20
2011,03,01,12,37,9.00
2011,03,01,12,38,8.90
2011,03,01,12,39,4.80
2011,03,01,12,40,5.80
2011,03,01,12,41,7.90
2011,03,01,12,42,6.50
2011,03,01,12,43,7.10
2011,03,01,12,44,10.60
2011,03,01,12,45,8.80
2011,03,01,12,46,5.10
2011,03,01,12,47,4.90
2011,03,01,12,48,8.60
2011,03,01,12,49,4.10
2011,03,01,12,50,5.80
2011,03,01,12,51,8.80
2011,03,01,12,52,6.50
2011,03,01,12,53,8.20
2011,03,01,12,54,6.60
2011,03,01,12,55,8.00
2011,03,01,12,56,7.80
2011,03,01,12,57,6.30
2011,03,01,12,58,11.70
2011,03,01,12,59,9.60
2011,03,01,13,00,6.30
2011,03,01,13,01,4.10
2011,03,01,13,02,7.30
2011,03,01,13,03,6.80
2011,03,01,13,04,5.80
2011,03,01,13,05,10.50
2011,03,01,13,06,6.30
2011,03,01,13,07,8.20
2011,03,01,13,08,9.10
2011,03,01,13,09,4.90
2011,03,01,13,10,6.40
2011,03,01,13,11,5.70
2011,03,01,13,12,7.70
2011,03,01,13,13,9.60
2011,03,01,13,14,5.60
2011,03,01,13,15,4.00
2011,03,01,13,16,6.30
2011,03,01,13,17,4.80
2011,03,01,13,18,5.90
2011,03,01,13,19,8.30
2011,03,01,13,20,8.00
2011,03,01,13,21,5.00
2011,03,01,13,22,7.50
2011,03,01,13,23,10.30
2011,03,01,13,24,8.70
2011,03,01,13,25,6.70
2011,03,01,13,26,6.70
2011,03,01,13,27,7.10
2011,03,01,13,28,6.30
2011,03,01,13,29,10.50
2011,03,01,13,30,8.10
2011,03,01,13,31,7.40
2011,03,01,13,32,9.90
2011,03,01,13,33,9.20
2011,03,01,13,34,7.90
2011,03,01,13,35,5.20
2011,03,01,13,36,9.40
2011,03,01,13,37,8.40
2011,03,01,13,38,5.00
2011,03,01,13,39,6.20
2011,03,01,13,40,5.90
2011,03,01,13,41,8.00
2011,03,01,13,42,4.90
2011,03,01,13,43,6.50
2011,03,01,13,44,5.60
2011,03,01,13,45,7.40
2011,03,01,13,46,8.50
2011,03,01,13,47,10.90
2011,03,01,13,48,8.70
2011,03,01,13,49,8.10
2011,03,01,13,50,15.90
2011,03,01,13,51,8.10
2011,03,01,13,52,13.10
2011,03,01,13,53,9.00
2011,03,01,13,54,9.40
2011,03,01,13,55,8.20
2011,03,01,13,56,8.20
2011,03,01,13,57,11.00
2011,03,01,13,58,11.00
2011,03,01,13,59,8.30
2011,03,01,14,00,9.60
2011,03,01,14,01,10.20
2011,03,01,14,02,12.00
2011,03,01,14,03,14.70
2011,03,01,14,04,14.50
2011,03,01,14,05,8.40
2011,03,01,14,06,9.50
2011,03,01,14,07,8.60
2011,03,01,14,08,9.90
2011,03,01,14,09,7.90
2011,03,01,14,10,8.70
2011,03,01,14,11,6.90
2011,03,01,14,12,5.00
2011,03,01,14,13,8.10
2011,03,01,14,14,8.10
2011,03,01,14,15,11.00
2011,03,01,14,16,7.70
2011,03,01,14,17,10.50
2011,03,01,14,18,11.00
2011,03,01,14,19,9.00
2011,03,01,14,20,8.90
2011,03,01,14,21,11.30
2011,03,01,14,22,10.80
2011,03,01,14,23,11.90
2011,03,01,14,24,12.80
2011,03,01,14,25,11.80
2011,03,01,14,26,14.10
2011,03,01,14,27,11.20
2011,03,01,14,28,9.40
2011,03,01,14,29,10.30
2011,03,01,14,30,9.00
2011,03,01,14,31,12.10
2011,03,01,14,32,9.10
2011,03,01,14,33,7.60
2011,03,01,14,34,6.10
2011,03,01,14,35,5.30
2011,03,01,14,36,8.20
2011,03,01,14,37,8.60
2011,03,01,14,38,7.10
2011,03,01,14,39,6.30
2011,03,01,14,40,7.80
2011,03,01,14,41,7.50
2011,03,01,14,42,10.40
2011,03,01,14,43,6.70
2011,03,01,14,44,8.20
2011,03,01,14,45,8.40
2011,03,01,14,46,7.70
2011,03,01,14,47,8.20
2011,03,01,14,48,8.10
2011,03,01,14,49,7.40
2011,03,01,14,50,9.00
2011,03,01,14,51,7.20
2011,03,01,14,52,10.90
2011,03,01,14,53,9.60
2011,03,01,14,54,9.30
2011,03,01,14,55,8.10
2011,03,01,14,56,6.40
2011,03,01,14,57,8.20
2011,03,01,14,58,6.10
2011,03,01,14,59,8.30
2011,03,01,15,00,12.10
2011,03,01,15,01,9.00
2011,03,01,15,02,8.40
2011,03,01,15,03,8.30
2011,03,01,15,04,7.60
2011,03,01,15,05,7.80
2011,03,01,15,06,9.50
2011,03,01,15,07,6.20
2011,03,01,15,08,6.40
2011,03,01,15,09,5.30
2011,03,01,15,10,5.90
2011,03,01,15,11,7.60
2011,03,01,15,12,7.60
2011,03,01,15,13,8.00
2011,03,01,15,14,8.30
2011,03,01,15,15,5.50
2011,03,01,15,16,6.10
2011,03,01,15,17,6.70
2011,03,01,15,18,8.40
2011,03,01,15,19,6.60
2011,03,01,15,20,9.50
2011,03,01,15,21,7.20
2011,03,01,15,22,5.10
2011,03,01,15,23,8.80
2011,03,01,15,24,4.10
2011,03,01,15,25,7.00
2011,03,01,15,26,9.00
2011,03,01,15,27,9.70
2011,03,01,15,28,8.50
2011,03,01,15,29,6.70
2011,03,01,15,30,7.70
2011,03,01,15,31,7.90
2011,03,01,15,32,9.50
2011,03,01,15,33,12.90
2011,03,01,15,34,7.10
2011,03,01,15,35,8.60
2011,03,01,15,36,7.40
2011,03,01,15,37,5.50
2011,03,01,15,38,8.10
2011,03,01,15,39,6.10
2011,03,01,15,40,5.70
2011,03,01,15,41,9.70
2011,03,01,15,42,7.60
2011,03,01,15,43,8.50
2011,03,01,15,44,10.50
2011,03,01,15,45,8.30
2011,03,01,15,46,9.40
2011,03,01,15,47,8.90
2011,03,01,15,48,8.00
2011,03,01,15,49,12.10
2011,03,01,15,50,9.20
2011,03,01,15,51,11.70
2011,03,01,15,52,9.50
2011,03,01,15,53,9.10
2011,03,01,15,54,8.00
2011,03,01,15,55,6.80
2011,03,01,15,56,5.70
2011,03,01,15,57,8.60
2011,03,01,15,58,11.80
2011,03,01,15,59,8.90
2011,03,01,16,00,8.60
2011,03,01,16,01,8.70
2011,03,01,16,02,6.80
2011,03,01,16,03,6.50
2011,03,01,16,04,7.00
2011,03,01,16,05,9.70
2011,03,01,16,06,9.30
2011,03,01,16,07,10.20
2011,03,01,16,08,9.20
2011,03,01,16,09,7.40
2011,03,01,16,10,6.90
2011,03,01,16,11,10.60
2011,03,01,16,12,12.30
2011,03,01,16,13,8.10
2011,03,01,16,14,9.80
2011,03,01,16,15,11.90
2011,03,01,16,16,7.70
2011,03,01,16,17,8.10
2011,03,01,16,18,5.70
2011,03,01,16,19,8.60
2011,03,01,16,20,7.40
2011,03,01,16,21,9.50
2011,03,01,16,22,11.10
2011,03,01,16,23,10.00
2011,03,01,16,24,8.10
2011,03,01,16,25,11.00
2011,03,01,16,26,9.00
2011,03,01,16,27,10.20
2011,03,01,16,28,11.60
2011,03,01,16,29,11.80
2011,03,01,16,30,11.80
2011,03,01,16,31,8.90
2011,03,01,16,32,12.00
2011,03,01,16,33,13.00
2011,03,01,16,34,10.70
2011,03,01,16,35,8.10
2011,03,01,16,36,8.40
2011,03,01,16,37,10.40
2011,03,01,16,38,6.20
2011,03,01,16,39,9.40
2011,03,01,16,40,9.80
2011,03,01,16,41,8.60
2011,03,01,16,42,7.80
2011,03,01,16,43,9.60
2011,03,01,16,44,8.40
2011,03,01,16,45,8.40
2011,03,01,16,46,8.60
2011,03,01,16,47,10.20
2011,03,01,16,48,10.60
2011,03,01,16,49,7.70
2011,03,01,16,50,7.80
2011,03,01,16,51,9.10
2011,03,01,16,52,11.60
2011,03,01,16,53,13.80
2011,03,01,16,54,10.50
2011,03,01,16,55,7.90
2011,03,01,16,56,8.60
2011,03,01,16,57,13.40
2011,03,01,16,58,13.20
2011,03,01,16,59,7.10
2011,03,01,17,00,9.60
2011,03,01,17,01,10.00
2011,03,01,17,02,11.30
2011,03,01,17,03,11.70
2011,03,01,17,04,9.80
2011,03,01,17,05,8.30
2011,03,01,17,06,13.70
2011,03,01,17,07,9.40
2011,03,01,17,08,8.40
2011,03,01,17,09,10.60
2011,03,01,17,10,9.40
2011,03,01,17,11,8.10
2011,03,01,17,12,11.30
2011,03,01,17,13,8.70
2011,03,01,17,14,7.50
2011,03,01,17,15,9.10
2011,03,01,17,16,10.70
2011,03,01,17,17,10.70
2011,03,01,17,18,9.90
2011,03,01,17,19,11.70
2011,03,01,17,20,8.60
2011,03,01,17,21,11.50
2011,03,01,17,22,9.60
2011,03,01,17,23,11.40
2011,03,01,17,24,8.40
2011,03,01,17,25,9.30
2011,03,01,17,26,7.10
2011,03,01,17,27,6.10
2011,03,01,17,28,9.90
2011,03,01,17,29,9.70
2011,03,01,17,30,6.60
2011,03,01,17,31,7.80
2011,03,01,17,32,11.50
2011,03,01,17,33,11.40
2011,03,01,17,34,9.80
2011,03,01,17,35,9.70
2011,03,01,17,36,9.90
2011,03,01,17,37,10.30
2011,03,01,17,38,9.00
2011,03,01,17,39,9.40
2011,03,01,17,40,10.00
2011,03,01,17,41,9.80
2011,03,01,17,42,6.30
2011,03,01,17,43,6.30
2011,03,01,17,44,5.60
2011,03,01,17,45,10.70
2011,03,01,17,46,10.10
2011,03,01,17,47,10.60
2011,03,01,17,48,11.10
2011,03,01,17,49,12.70
2011,03,01,17,50,12.90
2011,03,01,17,51,8.10
2011,03,01,17,52,8.40
2011,03,01,17,53,10.10
2011,03,01,17,54,11.50
2011,03,01,17,55,10.20
2011,03,01,17,56,14.30
2011,03,01,17,57,10.60
2011,03,01,17,58,7.90
2011,03,01,17,59,10.70
2011,03,01,18,00,10.40